This demonstration page uses our WeatherBlox Daily Observations layout. Learn more.

38.88101, -77.10428

Hourly Observations for June 30, 2016

Temp ( °F °C ) Dew Point ( °F °C ) Humidity (%) Winds ( mph kmh ) Pressure ( in mb ) Visibility ( mi km ) Precip ( " mm )
12:52 am 00:52 Clear 71 21.7 55 12.8 57 57 NW 7 11 30.02 1017 10 16.0934 0 0
1:34 am 01:34 Mostly Clear 72 22 54 12 53 53 NW 7 11 30.03 1017 10 16.0934 0 0
1:52 am 01:52 Partly Cloudy 71 21.7 54 12.2 55 55 NW 6 9 30.04 1017 10 16.0934 0 0
2:28 am 02:28 Cloudy 72 22 54 12 53 53 NW 8 13 30.03 1017 10 16.0934 0 0
2:52 am 02:52 Mostly Cloudy 71 21.7 53 11.7 53 53 NW 10 17 30.04 1017 10 16.0934 0 0
3:52 am 03:52 Partly Cloudy 67 19.4 56 13.3 68 68 N 6 9 30.04 1017 10 16.0934 0 0
4:52 am 04:52 Mostly Clear 66 18.9 56 13.3 70 70 N 6 9 30.04 1017 10 16.0934 0 0
5:52 am 05:52 Partly Cloudy 65 18.3 56 13.3 73 73 N 6 9 30.04 1017 10 16.0934 0 0
6:52 am 06:52 Partly Cloudy 68 20 56 13.3 65 65 N 6 9 30.05 1018 10 16.0934 0 0
7:52 am 07:52 Partly Cloudy 71 21.7 56 13.3 59 59 NNW 8 13 30.05 1018 10 16.0934 0 0
8:52 am 08:52 Mostly Cloudy 73 22.8 57 13.9 57 57 Calm 30.06 1018 10 16.0934 0 0
9:52 am 09:52 Mostly Cloudy 75 23.9 58 14.4 55 55 Calm 30.06 1018 10 16.0934 0 0
10:52 am 10:52 Mostly Cloudy 77 25 57 13.9 50 50 E 3 6 30.06 1018 10 16.0934 0 0
11:52 am 11:52 Partly Cloudy 79 26.1 57 13.9 47 47 SE 5 7 30.06 1018 10 16.0934 0 0
12:52 pm 12:52 Partly Cloudy 80 26.7 59 15 49 49 S 9 15 30.05 1018 10 16.0934 0 0
1:52 pm 13:52 Partly Cloudy 81 27.2 60 15.6 49 49 SSE 7 11 30.04 1017 10 16.0934 0 0
2:52 pm 14:52 Mostly Cloudy 82 27.8 60 15.6 47 47 S 7 11 30.03 1017 10 16.0934 0 0
3:52 pm 15:52 Mostly Cloudy 82 27.8 59 15 46 46 SW 9 15 30.02 1017 10 16.0934 0 0
4:52 pm 16:52 Mostly Cloudy 82 27.8 62 16.7 51 51 S 13 20 30.02 1017 10 16.0934 0 0
5:52 pm 17:52 Mostly Cloudy 81 27.2 62 16.7 53 53 SSE 8 13 30.01 1016 10 16.0934 0 0
6:52 pm 18:52 Mostly Sunny 81 27.2 62 16.7 53 53 S 10 17 30 1016 10 16.0934 0 0
7:52 pm 19:52 Partly Cloudy 79 26.1 62 16.7 56 56 S 6 9 30.01 1016 10 16.0934 0 0
8:52 pm 20:52 Partly Cloudy 78 25.6 62 16.7 58 58 S 6 9 30.01 1016 10 16.0934 0 0
9:52 pm 21:52 Partly Cloudy 77 25 63 17.2 62 62 SSE 3 6 30.01 1016 10 16.0934 0 0
10:52 pm 22:52 Partly Cloudy 76 24.4 62 16.7 62 62 SSE 5 7 30.02 1017 10 16.0934 0 0
11:52 pm 23:52 Mostly Cloudy 75 23.9 64 17.8 69 69 SSE 3 6 30.02 1017 10 16.0934 0 0

Powered by AerisWeather